Flag for Canada Weather past 2 weeks in Happy Valley-Goose Bay, Newfoundland and Labrador, Canada

Now
19 °F

Passing clouds.


Feels Like: 8 °F
Forecast: 12 / 36 °F
Wind: 10 mph from West

Location: Goose

Current Time: Apr 19, 2015 at 5:10:07 AM

Latest Report: Apr 19, 2015 at 4:00 AM


Visibility: 15 mi

Pressure: 30.04 "Hg

Humidity: 53%

Dew point: 5 °F

Location of Happy Valley-Goose BayLocation

Historic Weather in Happy Valley-Goose Bay — Graph

°F

Happy Valley-Goose Bay temperature yesterday

Maximum temperature yesterday: 30 °F (at 4:00 PM)
Minimum temperature yesterday: 12 °F (at 7:00 AM)
Average temperature yesterday: 22 °F

Past Weeks' High & Low Weather Summary

 TemperatureHumidityPressure
High52 °F (Apr 13, 3:00 PM)80% (Apr 11, 1:00 AM)30.48 "Hg (Apr 11, 1:00 AM)
Low-6 °F (Apr 7, 3:00 AM)32% (Apr 10, 2:00 PM)29.14 "Hg (Apr 11, 1:47 PM)
Average21 °F53%29.87 "Hg
* Reported Apr 4 4:00 AM — Apr 19 4:00 AM, Happy Valley-Goose Bay, Weather by CustomWeather, © 2015

Note: Actual official high and low records may vary slightly from our data, if they occured in-between our weather recording intervals... More about our weather records

Advertising

Happy Valley-Goose Bay weather history for previous 24 hours

 ConditionsComfort  
Time TempWeatherWind HumidityBarometerVisibility
4:00 AM
Sun, Apr 19
19 °FPassing clouds.10 mph53%30.04 "Hg15 mi
3:00 AM21 °FPassing clouds.8 mph54%30.04 "Hg15 mi
2:00 AM23 °FPassing clouds.7 mph54%30.04 "Hg15 mi
1:00 AM21 °FPassing clouds.8 mph54%30.04 "Hg15 mi
12:00 AM21 °FPassing clouds.5 mph58%30.04 "Hg15 mi
11:00 PM
Sat, Apr 18
21 °FPassing clouds.6 mph54%30.03 "Hg15 mi
10:00 PM25 °FPassing clouds.6 mph46%30.03 "Hg15 mi
9:00 PM25 °FPassing clouds.3 mph50%30.03 "Hg15 mi
8:00 PM28 °FPassing clouds.No wind43%30.00 "Hg15 mi
7:00 PM30 °FPassing clouds.7 mph43%29.98 "Hg15 mi
6:00 PM30 °FPassing clouds.7 mph43%29.98 "Hg15 mi
5:00 PM30 °FScattered clouds.5 mph43%29.98 "Hg15 mi
4:00 PM30 °FPassing clouds.7 mph43%29.98 "Hg15 mi
3:00 PM28 °FPassing clouds.5 mph47%29.98 "Hg15 mi
2:00 PM27 °FPassing clouds.8 mph50%29.99 "Hg15 mi
1:00 PM27 °FScattered clouds.No wind50%30.00 "Hg15 mi
12:00 PM25 °FSnow flurries. Partly sunny.2 mph54%30.01 "Hg15 mi
11:00 AM23 °FSnow flurries. Partly sunny.3 mph58%30.02 "Hg15 mi
10:00 AM21 °FPartly sunny.3 mph63%30.02 "Hg15 mi
9:00 AM18 °FSnow flurries. Broken clouds.7 mph62%30.02 "Hg15 mi
8:00 AM16 °FSnow flurries. Scattered clouds.5 mph67%30.02 "Hg15 mi
7:00 AM12 °FSnow flurries. Partly sunny.8 mph73%30.00 "Hg15 mi
6:00 AM14 °FPassing clouds.7 mph67%29.98 "Hg15 mi
5:00 AM14 °FPassing clouds.7 mph67%29.95 "Hg15 mi
Weather by CustomWeather, © 2015

See weather overviewHow to use our weather pages